Time,TemperatureF,DewpointF,PressureIn,WindDirection,WindDirectionDegrees,WindSpeedMPH,WindSpeedGustMPH,Humidity,HourlyPrecipIn,Conditions,Clouds,dailyrainin,SoftwareType,DateUTC
2013-02-25 00:01:00,24.0,19.0,30.10,NNW,342,5.0,9.0,81,0.00,,,0.00,,2013-02-25 05:01:00,
2013-02-25 00:11:00,24.0,19.0,30.10,NNW,342,5.0,9.0,81,0.00,,,0.00,,2013-02-25 05:11:00,
2013-02-25 00:22:00,24.0,19.0,30.10,NNW,348,6.0,10.0,81,0.00,,,0.00,,2013-02-25 05:22:00,
2013-02-25 00:32:00,24.0,19.0,30.11,NNW,335,4.0,8.0,81,0.00,,,0.00,,2013-02-25 05:32:00,
2013-02-25 00:42:00,24.0,19.0,30.11,NNW,335,4.0,8.0,81,0.00,,,0.00,,2013-02-25 05:42:00,
2013-02-25 00:52:00,24.0,19.0,30.11,NW,318,4.0,8.0,82,0.00,,,0.00,,2013-02-25 05:52:00,
2013-02-25 01:03:00,24.0,19.0,30.12,NNW,327,4.0,9.0,81,0.00,,,0.00,,2013-02-25 06:03:00,
2013-02-25 01:12:00,24.0,19.0,30.12,NNW,327,4.0,9.0,81,0.00,,,0.00,,2013-02-25 06:12:00,
2013-02-25 01:21:00,24.0,19.0,30.12,NW,323,4.0,8.0,82,0.00,,,0.00,,2013-02-25 06:21:00,
2013-02-25 01:32:00,24.0,19.0,30.12,NNW,333,4.0,7.0,82,0.00,,,0.00,,2013-02-25 06:32:00,
2013-02-25 01:42:00,24.0,19.0,30.12,NNW,333,4.0,7.0,82,0.00,,,0.00,,2013-02-25 06:42:00,
2013-02-25 01:51:00,24.0,19.0,30.13,NNW,335,2.0,6.0,82,0.00,,,0.00,,2013-02-25 06:51:00,
2013-02-25 02:01:00,24.0,19.0,30.12,NW,321,4.0,7.0,82,0.00,,,0.00,,2013-02-25 07:01:00,
2013-02-25 02:11:00,23.0,19.0,30.13,WNW,302,1.0,7.0,83,0.00,,,0.00,,2013-02-25 07:11:00,
2013-02-25 02:21:00,23.0,19.0,30.13,WNW,302,1.0,7.0,83,0.00,,,0.00,,2013-02-25 07:21:00,
2013-02-25 02:32:00,23.0,19.0,30.13,NNW,332,0.0,7.0,83,0.00,,,0.00,,2013-02-25 07:32:00,
2013-02-25 02:42:00,23.0,19.0,30.13,NNW,332,0.0,7.0,83,0.00,,,0.00,,2013-02-25 07:42:00,
2013-02-25 02:51:00,23.0,19.0,30.13,NNW,330,3.0,8.0,83,0.00,,,0.00,,2013-02-25 07:51:00,
2013-02-25 03:01:00,23.0,19.0,30.14,NNW,334,1.0,7.0,83,0.00,,,0.00,,2013-02-25 08:01:00,
2013-02-25 03:11:00,23.0,19.0,30.14,NNW,334,1.0,7.0,83,0.00,,,0.00,,2013-02-25 08:11:00,
2013-02-25 03:22:00,23.0,19.0,30.14,NW,321,1.0,4.0,84,0.00,,,0.00,,2013-02-25 08:22:00,
2013-02-25 03:32:00,23.0,19.0,30.14,NW,309,1.0,5.0,84,0.00,,,0.00,,2013-02-25 08:32:00,
2013-02-25 03:42:00,23.0,19.0,30.14,NW,309,1.0,5.0,84,0.00,,,0.00,,2013-02-25 08:42:00,
2013-02-25 03:52:00,23.0,19.0,30.14,NW,322,2.0,8.0,84,0.00,,,0.00,,2013-02-25 08:52:00,
2013-02-25 04:02:00,23.0,19.0,30.14,WNW,302,2.0,4.0,84,0.00,,,0.00,,2013-02-25 09:02:00,
2013-02-25 04:12:00,23.0,19.0,30.14,WNW,302,2.0,4.0,84,0.00,,,0.00,,2013-02-25 09:12:00,
2013-02-25 04:21:00,23.0,19.0,30.14,WNW,300,3.0,8.0,84,0.00,,,0.00,,2013-02-25 09:21:00,
2013-02-25 04:32:00,23.0,19.0,30.14,North,352,1.0,4.0,85,0.00,,,0.00,,2013-02-25 09:32:00,
2013-02-25 04:42:00,23.0,19.0,30.14,North,352,1.0,4.0,85,0.00,,,0.00,,2013-02-25 09:42:00,
2013-02-25 04:52:00,23.0,19.0,30.15,WNW,287,3.0,6.0,85,0.00,,,0.00,,2013-02-25 09:52:00,
2013-02-25 05:01:00,23.0,19.0,30.15,NNE,27,1.0,3.0,85,0.00,,,0.00,,2013-02-25 10:01:00,
2013-02-25 05:11:00,23.0,19.0,30.15,NNE,27,1.0,3.0,85,0.00,,,0.00,,2013-02-25 10:11:00,
2013-02-25 05:21:00,23.0,19.0,30.16,North,351,2.0,6.0,85,0.00,,,0.00,,2013-02-25 10:21:00,
2013-02-25 05:32:00,23.0,19.0,30.16,NNW,332,3.0,6.0,85,0.00,,,0.00,,2013-02-25 10:32:00,
2013-02-25 05:42:00,23.0,19.0,30.16,NNW,332,3.0,6.0,85,0.00,,,0.00,,2013-02-25 10:42:00,
2013-02-25 05:52:00,23.0,19.0,30.16,NNW,332,3.0,6.0,85,0.00,,,0.00,,2013-02-25 10:52:00,
2013-02-25 06:01:00,23.0,19.0,30.17,NNW,333,3.0,5.0,85,0.00,,,0.00,,2013-02-25 11:01:00,
2013-02-25 06:11:00,23.0,19.0,30.17,NNW,333,3.0,5.0,85,0.00,,,0.00,,2013-02-25 11:11:00,
2013-02-25 06:22:00,23.0,19.0,30.17,North,349,2.0,4.0,86,0.00,,,0.00,,2013-02-25 11:22:00,
2013-02-25 06:32:00,22.0,18.0,30.18,WNW,297,0.0,0.0,86,0.00,,,0.00,,2013-02-25 11:32:00,
2013-02-25 06:42:00,22.0,18.0,30.18,WNW,297,0.0,0.0,86,0.00,,,0.00,,2013-02-25 11:42:00,
2013-02-25 06:52:00,23.0,20.0,30.18,WNW,300,1.0,3.0,87,0.00,,,0.00,,2013-02-25 11:52:00,
2013-02-25 07:02:00,23.0,20.0,30.19,NW,311,0.0,2.0,87,0.00,,,0.00,,2013-02-25 12:02:00,
2013-02-25 07:11:00,23.0,20.0,30.19,NW,311,0.0,2.0,87,0.00,,,0.00,,2013-02-25 12:11:00,
2013-02-25 07:22:00,22.0,19.0,30.19,NW,311,0.0,0.0,88,0.00,,,0.00,,2013-02-25 12:22:00,
2013-02-25 07:32:00,22.0,19.0,30.20,West,280,0.0,1.0,89,0.00,,,0.00,,2013-02-25 12:32:00,
2013-02-25 07:42:00,22.0,19.0,30.20,West,280,0.0,1.0,89,0.00,,,0.00,,2013-02-25 12:42:00,
2013-02-25 07:54:00,22.0,19.0,30.21,WNW,290,0.0,1.0,89,0.00,,,0.00,,2013-02-25 12:54:00,
2013-02-25 08:02:00,22.0,20.0,30.20,WNW,287,0.0,1.0,90,0.00,,,0.00,,2013-02-25 13:02:00,
2013-02-25 08:12:00,22.0,20.0,30.20,WNW,287,0.0,1.0,90,0.00,,,0.00,,2013-02-25 13:12:00,
2013-02-25 08:23:00,22.0,19.0,30.21,SSW,209,0.0,0.0,89,0.00,,,0.00,,2013-02-25 13:23:00,
2013-02-25 08:32:00,23.0,20.0,30.22,West,276,0.0,1.0,89,0.00,,,0.00,,2013-02-25 13:32:00,
2013-02-25 08:42:00,23.0,20.0,30.22,West,276,0.0,1.0,89,0.00,,,0.00,,2013-02-25 13:42:00,
2013-02-25 08:52:00,24.0,20.0,30.22,WNW,298,1.0,2.0,86,0.00,,,0.00,,2013-02-25 13:52:00,
2013-02-25 09:03:00,25.0,21.0,30.22,WNW,294,0.0,2.0,85,0.00,,,0.00,,2013-02-25 14:03:00,
2013-02-25 09:18:00,25.0,21.0,30.22,WNW,294,0.0,2.0,85,0.00,,,0.00,,2013-02-25 14:18:00,
2013-02-25 09:32:00,26.0,21.0,30.23,NW,305,0.0,2.0,82,0.00,,,0.00,,2013-02-25 14:32:00,
2013-02-25 09:42:00,26.0,21.0,30.23,NW,305,0.0,2.0,82,0.00,,,0.00,,2013-02-25 14:42:00,
2013-02-25 09:52:00,27.0,22.0,30.23,WNW,293,0.0,1.0,80,0.00,,,0.00,,2013-02-25 14:52:00,
2013-02-25 10:03:00,28.0,22.0,30.23,North,11,1.0,3.0,77,0.00,,,0.00,,2013-02-25 15:03:00,
2013-02-25 10:11:00,28.0,22.0,30.23,North,11,1.0,3.0,77,0.00,,,0.00,,2013-02-25 15:11:00,
2013-02-25 10:22:00,28.0,21.0,30.23,NNE,30,1.0,3.0,75,0.00,,,0.00,,2013-02-25 15:22:00,
2013-02-25 10:32:00,29.0,21.0,30.23,NNE,12,0.0,3.0,73,0.00,,,0.00,,2013-02-25 15:32:00,
2013-02-25 10:42:00,29.0,21.0,30.23,NNE,12,0.0,3.0,73,0.00,,,0.00,,2013-02-25 15:42:00,
2013-02-25 10:52:00,30.0,21.0,30.24,NNE,16,0.0,2.0,70,0.00,,,0.00,,2013-02-25 15:52:00,
2013-02-25 11:02:00,31.0,21.0,30.24,NNE,25,1.0,3.0,66,0.00,,,0.00,,2013-02-25 16:02:00,
2013-02-25 11:12:00,31.0,21.0,30.24,NNE,25,1.0,3.0,66,0.00,,,0.00,,2013-02-25 16:12:00,
2013-02-25 11:22:00,31.0,21.0,30.24,North,10,2.0,6.0,65,0.00,,,0.00,,2013-02-25 16:22:00,
2013-02-25 11:32:00,32.0,21.0,30.24,NE,47,0.0,3.0,63,0.00,,,0.00,,2013-02-25 16:32:00,
2013-02-25 11:42:00,32.0,21.0,30.24,NE,47,0.0,3.0,63,0.00,,,0.00,,2013-02-25 16:42:00,
2013-02-25 11:51:00,33.0,20.0,30.24,North,1,1.0,4.0,59,0.00,,,0.00,,2013-02-25 16:51:00,
2013-02-25 12:02:00,34.0,20.0,30.25,North,351,1.0,3.0,57,0.00,,,0.00,,2013-02-25 17:02:00,
2013-02-25 12:11:00,34.0,20.0,30.25,North,351,1.0,3.0,57,0.00,,,0.00,,2013-02-25 17:11:00,
2013-02-25 12:21:00,35.0,21.0,30.24,NE,39,0.0,4.0,56,0.00,,,0.00,,2013-02-25 17:21:00,
2013-02-25 12:32:00,35.0,20.0,30.24,South,173,0.0,3.0,55,0.00,,,0.00,,2013-02-25 17:32:00,
2013-02-25 12:42:00,35.0,20.0,30.24,South,173,0.0,3.0,55,0.00,,,0.00,,2013-02-25 17:42:00,
2013-02-25 12:52:00,35.0,20.0,30.23,WNW,290,0.0,3.0,55,0.00,,,0.00,,2013-02-25 17:52:00,
2013-02-25 13:02:00,36.0,21.0,30.22,NW,321,1.0,5.0,53,0.00,,,0.00,,2013-02-25 18:02:00,
2013-02-25 13:12:00,36.0,21.0,30.22,NW,321,1.0,5.0,53,0.00,,,0.00,,2013-02-25 18:12:00,
2013-02-25 13:22:00,37.0,20.0,30.22,West,264,1.0,7.0,50,0.00,,,0.00,,2013-02-25 18:22:00,
2013-02-25 13:33:00,37.0,21.0,30.22,North,351,2.0,7.0,51,0.00,,,0.00,,2013-02-25 18:33:00,
2013-02-25 13:42:00,37.0,21.0,30.22,North,351,2.0,7.0,51,0.00,,,0.00,,2013-02-25 18:42:00,
2013-02-25 13:51:00,37.0,19.0,30.22,North,1,3.0,7.0,48,0.00,,,0.00,,2013-02-25 18:51:00,
2013-02-25 14:02:00,37.0,20.0,30.21,NW,314,5.0,8.0,49,0.00,,,0.00,,2013-02-25 19:02:00,
2013-02-25 14:11:00,37.0,20.0,30.21,NW,314,5.0,8.0,49,0.00,,,0.00,,2013-02-25 19:11:00,
2013-02-25 14:22:00,38.0,20.0,30.21,SE,138,1.0,4.0,48,0.00,,,0.00,,2013-02-25 19:22:00,
2013-02-25 14:32:00,39.0,20.0,30.21,NNW,328,4.0,6.0,46,0.00,,,0.00,,2013-02-25 19:32:00,
2013-02-25 14:42:00,39.0,20.0,30.21,NNW,328,4.0,6.0,46,0.00,,,0.00,,2013-02-25 19:42:00,
2013-02-25 14:52:00,39.0,19.0,30.21,NE,54,1.0,5.0,45,0.00,,,0.00,,2013-02-25 19:52:00,
2013-02-25 15:01:00,37.0,19.0,30.20,NE,50,0.0,7.0,47,0.00,,,0.00,,2013-02-25 20:01:00,
2013-02-25 15:11:00,37.0,19.0,30.20,NE,50,0.0,7.0,47,0.00,,,0.00,,2013-02-25 20:11:00,
2013-02-25 15:22:00,38.0,19.0,30.19,NNW,328,3.0,6.0,45,0.00,,,0.00,,2013-02-25 20:22:00,
2013-02-25 15:32:00,37.0,19.0,30.20,NNW,343,2.0,5.0,47,0.00,,,0.00,,2013-02-25 20:32:00,
2013-02-25 15:42:00,37.0,19.0,30.20,NNW,343,2.0,5.0,47,0.00,,,0.00,,2013-02-25 20:42:00,
2013-02-25 15:52:00,38.0,19.0,30.19,NE,37,3.0,6.0,46,0.00,,,0.00,,2013-02-25 20:52:00,
2013-02-25 16:02:00,39.0,19.0,30.19,WNW,287,0.0,2.0,45,0.00,,,0.00,,2013-02-25 21:02:00,
2013-02-25 16:11:00,39.0,19.0,30.19,WNW,287,0.0,2.0,45,0.00,,,0.00,,2013-02-25 21:11:00,
2013-02-25 16:21:00,40.0,19.0,30.19,WNW,301,2.0,4.0,43,0.00,,,0.00,,2013-02-25 21:21:00,
2013-02-25 16:32:00,39.0,20.0,30.19,NNW,338,0.0,4.0,46,0.00,,,0.00,,2013-02-25 21:32:00,
2013-02-25 16:42:00,39.0,20.0,30.19,NNW,338,0.0,4.0,46,0.00,,,0.00,,2013-02-25 21:42:00,
2013-02-25 16:52:00,39.0,19.0,30.19,NNE,29,4.0,6.0,45,0.00,,,0.00,,2013-02-25 21:52:00,
2013-02-25 17:02:00,38.0,19.0,30.20,NNW,332,4.0,5.0,46,0.00,,,0.00,,2013-02-25 22:02:00,
2013-02-25 17:11:00,38.0,19.0,30.20,NNW,332,4.0,5.0,46,0.00,,,0.00,,2013-02-25 22:11:00,
2013-02-25 17:21:00,38.0,19.0,30.21,NNW,332,1.0,4.0,45,0.00,,,0.00,,2013-02-25 22:21:00,
2013-02-25 17:32:00,38.0,19.0,30.21,NNW,339,2.0,5.0,45,0.00,,,0.00,,2013-02-25 22:32:00,
2013-02-25 17:42:00,38.0,19.0,30.21,NNW,339,2.0,5.0,45,0.00,,,0.00,,2013-02-25 22:42:00,
2013-02-25 17:52:00,38.0,19.0,30.21,NNE,23,2.0,3.0,45,0.00,,,0.00,,2013-02-25 22:52:00,
2013-02-25 18:01:00,38.0,19.0,30.21,NNE,23,2.0,3.0,45,0.00,,,0.00,,2013-02-25 23:01:00,
2013-02-25 18:11:00,38.0,19.0,30.21,NNE,23,2.0,3.0,45,0.00,,,0.00,,2013-02-25 23:11:00,
2013-02-25 18:22:00,37.0,18.0,30.21,NNE,22,2.0,4.0,46,0.00,,,0.00,,2013-02-25 23:22:00,
2013-02-25 18:32:00,36.0,18.0,30.21,East,94,0.0,6.0,48,0.00,,,0.00,,2013-02-25 23:32:00,
2013-02-25 18:42:00,36.0,18.0,30.21,East,94,0.0,6.0,48,0.00,,,0.00,,2013-02-25 23:42:00,
2013-02-25 18:52:00,36.0,19.0,30.22,ESE,111,0.0,1.0,50,0.00,,,0.00,,2013-02-25 23:52:00,
2013-02-25 19:02:00,35.0,20.0,30.22,North,3,2.0,3.0,54,0.00,,,0.00,,2013-02-26 00:02:00,
2013-02-25 19:12:00,35.0,20.0,30.22,North,3,2.0,3.0,54,0.00,,,0.00,,2013-02-26 00:12:00,
2013-02-25 19:22:00,34.0,20.0,30.22,NE,35,0.0,2.0,55,0.00,,,0.00,,2013-02-26 00:22:00,
2013-02-25 19:32:00,34.0,20.0,30.22,ESE,122,0.0,1.0,56,0.00,,,0.00,,2013-02-26 00:32:00,
2013-02-25 19:42:00,34.0,20.0,30.22,ESE,122,0.0,1.0,56,0.00,,,0.00,,2013-02-26 00:42:00,
2013-02-25 19:52:00,33.0,19.0,30.22,NE,36,0.0,2.0,57,0.00,,,0.00,,2013-02-26 00:52:00,
2013-02-25 20:02:00,33.0,20.0,30.22,ENE,68,0.0,5.0,58,0.00,,,0.00,,2013-02-26 01:02:00,
2013-02-25 20:11:00,33.0,20.0,30.22,ENE,68,0.0,5.0,58,0.00,,,0.00,,2013-02-26 01:11:00,
2013-02-25 20:21:00,32.0,20.0,30.22,NE,35,3.0,6.0,61,0.00,,,0.00,,2013-02-26 01:21:00,
2013-02-25 20:32:00,32.0,20.0,30.22,NE,35,3.0,6.0,61,0.00,,,0.00,,2013-02-26 01:32:00,
2013-02-25 20:42:00,32.0,20.0,30.22,NE,35,3.0,6.0,61,0.00,,,0.00,,2013-02-26 01:42:00,
2013-02-25 20:52:00,30.0,21.0,30.24,NNW,340,3.0,5.0,68,0.00,,,0.00,,2013-02-26 01:52:00,
2013-02-25 21:01:00,31.0,21.0,30.24,NE,48,0.0,1.0,66,0.00,,,0.00,,2013-02-26 02:01:00,
2013-02-25 21:11:00,31.0,21.0,30.24,NE,48,0.0,1.0,66,0.00,,,0.00,,2013-02-26 02:11:00,
2013-02-25 21:21:00,31.0,21.0,30.24,SE,135,1.0,3.0,65,0.00,,,0.00,,2013-02-26 02:21:00,
2013-02-25 21:32:00,31.0,21.0,30.24,ESE,120,0.0,2.0,65,0.00,,,0.00,,2013-02-26 02:32:00,
2013-02-25 21:42:00,31.0,21.0,30.24,ESE,120,0.0,2.0,65,0.00,,,0.00,,2013-02-26 02:42:00,
2013-02-25 21:52:00,30.0,20.0,30.23,East,98,0.0,1.0,66,0.00,,,0.00,,2013-02-26 02:52:00,
2013-02-25 22:02:00,30.0,20.0,30.23,ESE,122,0.0,1.0,66,0.00,,,0.00,,2013-02-26 03:02:00,
2013-02-25 22:12:00,30.0,20.0,30.23,ESE,122,0.0,1.0,66,0.00,,,0.00,,2013-02-26 03:12:00,
2013-02-25 22:22:00,30.0,20.0,30.23,East,96,0.0,2.0,67,0.00,,,0.00,,2013-02-26 03:22:00,
2013-02-25 22:32:00,30.0,21.0,30.23,SE,133,0.0,2.0,68,0.00,,,0.00,,2013-02-26 03:32:00,
2013-02-25 22:42:00,30.0,21.0,30.23,SE,133,0.0,2.0,68,0.00,,,0.00,,2013-02-26 03:42:00,
2013-02-25 22:52:00,29.0,20.0,30.23,SE,140,1.0,2.0,70,0.00,,,0.00,,2013-02-26 03:52:00,
2013-02-25 23:02:00,29.0,20.0,30.23,SSE,162,1.0,3.0,69,0.00,,,0.00,,2013-02-26 04:02:00,
2013-02-25 23:11:00,29.0,20.0,30.23,SSE,162,1.0,3.0,69,0.00,,,0.00,,2013-02-26 04:11:00,
2013-02-25 23:22:00,29.0,20.0,30.22,SE,142,0.0,2.0,69,0.00,,,0.00,,2013-02-26 04:22:00,
2013-02-25 23:32:00,29.0,20.0,30.22,SE,142,0.0,2.0,69,0.00,,,0.00,,2013-02-26 04:32:00,
2013-02-25 23:42:00,29.0,20.0,30.22,SE,142,0.0,2.0,69,0.00,,,0.00,,2013-02-26 04:42:00,
2013-02-25 23:52:00,29.0,21.0,30.22,SSE,162,1.0,5.0,72,0.00,,,0.00,,2013-02-26 04:52:00,